Weather History for KGUC - September, 2012

Change the Weather History Date:

Wednesday, September 26, 2012

  Actual Average Record
Temperature  
Mean Temperature 46 °F -  
Max Temperature 57 °F 64 °F 77 °F (2010)
Min Temperature 35 °F 30 °F 19 °F (2000)
Degree Days  
Heating Degree Days 19    
Moisture  
Dew Point 36 °F    
Average Humidity 75    
Maximum Humidity 93    
Minimum Humidity 44    
Precipitation  
Precipitation 0.03 in - - ()
Sea Level Pressure  
Sea Level Pressure 30.27 in    
Wind  
Wind Speed 2 mph (NNW)    
Max Wind Speed 15 mph    
Max Gust Speed 20 mph    
Visibility 10 miles    
Events Thunderstorm    
Averages and records for this station are not official NWS values.
T = Trace of Precipitation, MM = Missing Value Source: NWS Daily Summary

Daily Weather History Graph

Daily Weather History Graph

Search for Another Location

Airport or City:

Trip Planner

Search our weather history database for the weather conditions in past years. The results will help you decide how hot, cold, wet, or windy it might be!

Date:

Astronomy

Sep. 26, 2012 Rise Set
Actual Time 6:59 AM MDT 6:57 PM MDT
Civil Twilight 6:33 AM MDT 7:23 PM MDT
Nautical Twilight 6:02 AM MDT 7:54 PM MDT
Astronomical Twilight 5:31 AM MDT 8:25 PM MDT
Moon 4:57 PM MDT 3:30 AM MDT
Length of Visible Light 12h 50m
Length of Day
11h 58m
Waxing Gibbous, 88% of the Moon is Illuminated
Sep 26
Waxing Gibbous
Sep 29
Full
Oct 8
Last Quarter
Oct 15
New
Oct 21
First Quarter

Hourly Weather History & Observations

Time (MDT) Temp. Windchill Dew Point Humidity Pressure Visibility Wind Dir Wind Speed Gust Speed Precip Events Conditions
12:15 AM 39.2 °F - 35.6 °F 87% 30.23 in 10.0 mi Calm Calm - N/A   Overcast
12:35 AM 41.0 °F 38.0 °F 35.6 °F 81% 30.23 in 10.0 mi NNW 4.6 mph - N/A   Overcast
12:55 AM 39.2 °F - 35.6 °F 87% 30.24 in 10.0 mi Calm Calm - N/A   Overcast
1:15 AM 39.2 °F - 35.6 °F 87% 30.24 in 10.0 mi Calm Calm - N/A   Overcast
1:35 AM 39.2 °F 35.9 °F 35.6 °F 87% 30.24 in 10.0 mi NNW 4.6 mph - N/A   Overcast
2:15 AM 39.2 °F 37.0 °F 35.6 °F 87% 30.24 in 10.0 mi NE 3.5 mph - N/A   Clear
2:35 AM 37.4 °F - 33.8 °F 87% 30.24 in 10.0 mi Calm Calm - N/A   Clear
2:55 AM 37.4 °F 34.9 °F 33.8 °F 87% 30.24 in 10.0 mi North 3.5 mph - N/A   Partly Cloudy
3:15 AM 37.4 °F 33.8 °F 32.0 °F 81% 30.24 in 10.0 mi North 4.6 mph - N/A   Scattered Clouds
3:35 AM 35.6 °F 32.8 °F 33.8 °F 93% 30.23 in 10.0 mi NE 3.5 mph - N/A   Mostly Cloudy
3:55 AM 35.6 °F 32.8 °F 32.0 °F 87% 30.24 in 10.0 mi NNE 3.5 mph - N/A   Partly Cloudy
4:35 AM 35.6 °F - 33.8 °F 93% 30.24 in 10.0 mi Calm Calm - N/A   Overcast
4:55 AM 35.6 °F - 32.0 °F 87% 30.25 in 10.0 mi Calm Calm - N/A   Overcast
5:15 AM 37.4 °F - 33.8 °F 87% 30.25 in 10.0 mi Calm Calm - N/A   Overcast
5:35 AM 37.4 °F - 33.8 °F 87% 30.25 in 10.0 mi Calm Calm - N/A   Overcast
5:55 AM 37.4 °F - 33.8 °F 87% 30.25 in 10.0 mi Calm Calm - N/A   Overcast
6:35 AM 37.4 °F - 33.8 °F 87% 30.26 in 10.0 mi Calm Calm - N/A   Overcast
7:15 AM 37.4 °F - 33.8 °F 87% 30.27 in 10.0 mi Calm Calm - N/A   Mostly Cloudy
7:55 AM 37.4 °F 33.8 °F 33.8 °F 87% 30.27 in 10.0 mi ENE 4.6 mph - N/A   Scattered Clouds
8:15 AM 37.4 °F - 33.8 °F 87% 30.28 in 10.0 mi Calm Calm - N/A   Clear
8:35 AM 39.2 °F - 35.6 °F 87% 30.28 in 10.0 mi Calm Calm - N/A   Clear
9:15 AM 42.8 °F - 37.4 °F 81% 30.29 in 10.0 mi Calm Calm - N/A   Mostly Cloudy
9:35 AM 44.6 °F 40.7 °F 37.4 °F 76% 30.29 in 10.0 mi East 6.9 mph - N/A   Mostly Cloudy
9:55 AM 44.6 °F 43.1 °F 35.6 °F 71% 30.29 in 10.0 mi East 3.5 mph - N/A   Mostly Cloudy
10:15 AM 44.6 °F 43.1 °F 37.4 °F 76% 30.29 in 10.0 mi East 3.5 mph - N/A   Mostly Cloudy
10:35 AM 46.4 °F 45.2 °F 37.4 °F 71% 30.29 in 10.0 mi SSW 3.5 mph - N/A   Overcast
10:55 AM 46.4 °F 44.3 °F 37.4 °F 71% 30.29 in 10.0 mi North 4.6 mph - N/A   Mostly Cloudy
11:15 AM 48.2 °F - 37.4 °F 66% 30.28 in 10.0 mi Calm Calm - N/A   Scattered Clouds
11:55 AM 51.8 °F - 39.2 °F 62% 30.27 in 10.0 mi Calm Calm - N/A   Clear
12:15 PM 51.8 °F - 39.2 °F 62% 30.26 in 10.0 mi NNW 3.5 mph - N/A   Clear
12:35 PM 53.6 °F - 39.2 °F 58% 30.25 in 10.0 mi Calm Calm - N/A   Clear
12:55 PM 55.4 °F - 37.4 °F 51% 30.24 in 10.0 mi Calm Calm - N/A   Clear
1:15 PM 55.4 °F - 35.6 °F 47% 30.23 in 10.0 mi Calm Calm - N/A   Partly Cloudy
1:55 PM 57.2 °F - 35.6 °F 44% 30.22 in 10.0 mi SW 3.5 mph - N/A Thunderstorm Mostly Cloudy
2:35 PM 55.4 °F - 37.4 °F 51% 30.23 in 10.0 mi WSW 10.4 mph - N/A Thunderstorm Thunderstorm
2:55 PM 55.4 °F - 35.6 °F 47% 30.24 in 10.0 mi West 13.8 mph - N/A   Mostly Cloudy
3:15 PM 57.2 °F - 35.6 °F 44% 30.25 in 10.0 mi West 15.0 mph 19.6 mph N/A   Mostly Cloudy
3:35 PM 55.4 °F - 35.6 °F 47% 30.26 in 10.0 mi West 11.5 mph 18.4 mph N/A   Mostly Cloudy
4:55 PM 53.6 °F - 35.6 °F 51% 30.28 in 10.0 mi North 8.1 mph - N/A   Overcast
5:15 PM 51.8 °F - 37.4 °F 58% 30.30 in 10.0 mi SW 6.9 mph - N/A   Overcast
5:55 PM 50.0 °F - 39.2 °F 66% 30.31 in 10.0 mi SW 9.2 mph - N/A   Overcast
6:15 PM 46.4 °F 42.9 °F 37.4 °F 71% 30.33 in 9.0 mi SW 6.9 mph - 0.02 in   Overcast
6:35 PM 46.4 °F 45.2 °F 39.2 °F 76% 30.32 in 10.0 mi SSW 3.5 mph - 0.03 in   Overcast
6:55 PM 46.4 °F - 39.2 °F 76% 30.32 in 10.0 mi Calm Calm - 0.03 in   Overcast
7:35 PM 46.4 °F 45.2 °F 39.2 °F 76% 30.32 in 10.0 mi SE 3.5 mph - N/A   Mostly Cloudy
7:55 PM 46.4 °F - 39.2 °F 76% 30.33 in 10.0 mi Calm Calm - N/A   Mostly Cloudy
8:15 PM 46.4 °F - 39.2 °F 76% 30.32 in 10.0 mi Calm Calm - N/A   Mostly Cloudy
8:35 PM 44.6 °F - 39.2 °F 81% 30.33 in 10.0 mi Calm Calm - N/A   Scattered Clouds
8:55 PM 44.6 °F - 39.2 °F 81% 30.33 in 10.0 mi Calm Calm - N/A   Mostly Cloudy
9:15 PM 44.6 °F - 39.2 °F 81% 30.33 in 10.0 mi Calm Calm - N/A   Overcast
9:35 PM 44.6 °F - 39.2 °F 81% 30.32 in 10.0 mi Calm Calm - N/A   Overcast
10:15 PM 44.6 °F 43.1 °F 39.2 °F 81% 30.33 in 10.0 mi North 3.5 mph - N/A   Overcast
10:35 PM 44.6 °F 43.1 °F 37.4 °F 76% 30.34 in 10.0 mi NNE 3.5 mph - N/A   Overcast
10:55 PM 42.8 °F 40.1 °F 37.4 °F 81% 30.34 in 10.0 mi NNE 4.6 mph - N/A   Overcast